FW1419 Weather Reports


Display with metric or nautical units.
time (UTC)temp
F
wind
direction
speed
MPH
gust
MPH
rain 1hr
in
rain 24hr
in
rain mn
in
humidity
%
barometer
mb
20260505041319 56 238 2.0 9.0 0.00 0.00 0.00 72 1014.9
20260505040829 56 209 2.0 9.0 0.00 0.00 0.00 72 1014.9
20260505040319 56 191 3.0 6.0 0.00 0.00 0.00 71 1014.9
20260505035830 57 152 2.0 7.0 0.00 0.00 0.00 70 1014.7
20260505035321 57 214 3.0 8.0 0.00 0.00 0.00 70 1014.7
20260505034811 57 232 2.0 8.0 0.00 0.00 0.00 69 1014.6
20260505034322 57 215 4.0 9.0 0.00 0.00 0.00 68 1014.5
20260505033814 57 214 5.0 11.0 0.00 0.00 0.00 68 1014.5
20260505033330 58 184 4.0 12.0 0.00 0.00 0.00 68 1014.5
20260505032821 58 277 4.0 8.0 0.00 0.00 0.00 67 1014.4
20260505032312 59 197 4.0 8.0 0.00 0.00 0.00 63 1014.4
20260505031823 59 218 4.0 9.0 0.00 0.00 0.00 61 1014.4
20260505031315 59 222 4.0 8.0 0.00 0.00 0.00 61 1014.4
20260505030826 59 235 1.0 5.0 0.00 0.00 0.00 62 1014.3
20260505030316 59 275 1.0 5.0 0.00 0.00 0.00 62 1014.2
20260505025828 59 274 2.0 6.0 0.00 0.00 0.00 62 1014.1
20260505025323 59 262 1.0 8.0 0.00 0.00 0.00 62 1014.1
20260505024815 59 281 4.0 9.0 0.00 0.00 0.00 62 1014.1
20260505024346 59 252 2.0 10.0 0.00 0.00 0.00 62 1014.1
20260505023815 59 221 4.0 9.0 0.00 0.00 0.00 61 1014.1
20260505023327 60 274 3.0 8.0 0.00 0.00 0.00 61 1014.1
20260505022819 60 165 4.0 9.0 0.00 0.00 0.00 60 1014.1
20260505022350 60 216 3.0 9.0 0.00 0.00 0.00 60 1014.0
20260505021820 60 221 2.0 8.0 0.00 0.00 0.00 59 1014.1
20260505021312 60 281 4.0 8.0 0.00 0.00 0.00 58 1014.1
20260505020823 60 252 2.0 8.0 0.00 0.00 0.00 57 1014.0
20260505020335 61 272 2.0 6.0 0.00 0.00 0.00 57 1014.0
20260505015830 61 259 2.0 8.0 0.00 0.00 0.00 57 1014.0
20260505015322 61 257 1.0 9.0 0.00 0.00 0.00 56 1013.9
20260505014814 61 248 3.0 9.0 0.00 0.00 0.00 56 1013.8
20260505014325 61 242 3.0 9.0 0.00 0.00 0.00 56 1013.8
20260505013815 61 293 4.0 12.0 0.00 0.00 0.00 56 1013.8
20260505013328 62 264 5.0 10.0 0.00 0.00 0.00 55 1013.8
20260505012819 62 247 4.0 14.0 0.00 0.00 0.00 54 1013.8
20260505012330 62 278 5.0 14.0 0.00 0.00 0.00 53 1013.7
20260505011824 63 240 4.0 12.0 0.00 0.00 0.00 52 1013.7
20260505011316 64 278 5.0 12.0 0.00 0.00 0.00 50 1013.7
20260505010827 64 248 2.0 10.0 0.00 0.00 0.00 49 1013.8
20260505010317 64 237 3.0 8.0 0.00 0.00 0.00 47 1013.7
20260505005850 64 266 2.0 6.0 0.00 0.00 0.00 45 1013.8
20260505005320 64 266 2.0 7.0 0.00 0.00 0.00 44 1013.7
20260505004852 64 289 1.0 7.0 0.00 0.00 0.00 44 1013.7
20260505004322 64 270 2.0 5.0 0.00 0.00 0.00 44 1013.7
20260505003813 65 196 3.0 7.0 0.00 0.00 0.00 44 1013.8
20260505003344 65 298 3.0 7.0 0.00 0.00 0.00 43 1013.8
20260505002818 64 259 1.0 5.0 0.00 0.00 0.00 44 1013.8
20260505002330 64 274 1.0 4.0 0.00 0.00 0.00 44 1013.9
20260505001842 64 230 1.0 7.0 0.00 0.00 0.00 43 1013.8
20260505001312 64 333 2.0 6.0 0.00 0.00 0.00 43 1014.0
20260505000824 64 307 2.0 6.0 0.00 0.00 0.00 43 1013.9
20260505000315 65 307 1.0 6.0 0.00 0.00 0.00 42 1013.8
20260504235826 65 195 1.0 7.0 0.00 0.00 0.00 43 1013.8
20260504235319 65 238 2.0 7.0 0.00 0.00 0.00 43 1013.9
20260504234830 65 306 3.0 6.0 0.00 0.00 0.00 43 1013.9
20260504234326 64 273 2.0 6.0 0.00 0.00 0.00 44 1013.9
20260504233836 64 268 2.0 7.0 0.00 0.00 0.00 44 1013.8
20260504233327 64 263 1.0 7.0 0.00 0.00 0.00 45 1013.8
20260504232839 64 309 1.0 7.0 0.00 0.00 0.00 45 1013.9
20260504232329 64 269 1.0 4.0 0.00 0.00 0.00 46 1013.8
20260504231819 64 270 1.0 8.0 0.00 0.00 0.00 45 1013.9
20260504231331 64 274 2.0 8.0 0.00 0.00 0.00 46 1013.9
20260504230822 64 259 1.0 9.0 0.00 0.00 0.00 46 1013.9
20260504230312 64 311 6.0 9.0 0.00 0.00 0.00 46 1013.8
20260504225822 64 309 2.0 7.0 0.00 0.00 0.00 46 1013.9
20260504225314 64 323 2.0 8.0 0.00 0.00 0.00 46 1014.1
20260504224829 64 308 4.0 9.0 0.00 0.00 0.00 46 1014.1
20260504224320 64 302 4.0 9.0 0.00 0.00 0.00 46 1014.1
20260504223331 64 311 2.0 6.0 0.00 0.00 0.00 47 1014.3
20260504222822 64 271 2.0 7.0 0.00 0.00 0.00 47 1014.4
20260504222333 63 302 4.0 7.0 0.00 0.00 0.00 48 1014.5
20260504221823 63 297 2.0 6.0 0.00 0.00 0.00 49 1014.5
20260504221313 63 39 1.0 7.0 0.00 0.00 0.00 49 1014.7
20260504220845 63 311 4.0 7.0 0.00 0.00 0.00 48 1014.7
20260504220314 63 266 2.0 10.0 0.00 0.00 0.00 48 1014.7
20260504215825 63 277 6.0 10.0 0.00 0.00 0.00 47 1014.7
20260504215319 63 247 2.0 9.0 0.00 0.00 0.00 48 1014.8
20260504214829 63 311 5.0 9.0 0.00 0.00 0.00 48 1014.8
20260504214320 63 307 2.0 7.0 0.00 0.00 0.00 49 1014.9
20260504213812 63 302 2.0 8.0 0.00 0.00 0.00 49 1014.9
20260504213324 63 297 3.0 8.0 0.00 0.00 0.00 48 1015.1
20260504212815 64 307 2.0 6.0 0.00 0.00 0.00 49 1015.2
20260504212325 63 277 1.0 4.0 0.00 0.00 0.00 48 1015.4
20260504211816 63 263 2.0 4.0 0.00 0.00 0.00 48 1015.2
20260504211327 63 109 0.0 4.0 0.00 0.00 0.00 50 1015.3
20260504210823 63 224 1.0 5.0 0.00 0.00 0.00 50 1015.3
20260504210314 63 12 0.0 7.0 0.00 0.00 0.00 51 1015.3
20260504205826 63 300 1.0 7.0 0.00 0.00 0.00 51 1015.3
20260504205318 63 229 2.0 5.0 0.00 0.00 0.00 51 1015.4
20260504204829 63 257 2.0 8.0 0.00 0.00 0.00 51 1015.4
20260504204321 62 311 4.0 8.0 0.00 0.00 0.00 50 1015.4
20260504203812 62 266 3.0 7.0 0.00 0.00 0.00 51 1015.3
20260504203323 62 306 2.0 8.0 0.00 0.00 0.00 51 1015.3
20260504202817 62 259 4.0 8.0 0.00 0.00 0.00 52 1015.4
20260504202328 63 260 3.0 6.0 0.00 0.00 0.00 51 1015.5
20260504201819 62 274 2.0 6.0 0.00 0.00 0.00 51 1015.4
20260504201351 62 295 1.0 6.0 0.00 0.00 0.00 51 1015.4
20260504200821 62 224 0.0 7.0 0.00 0.00 0.00 51 1015.5
20260504200312 62 245 1.0 9.0 0.00 0.00 0.00 51 1015.6
20260504195823 62 242 3.0 9.0 0.00 0.00 0.00 52 1015.7
20260504195314 61 240 0.0 6.0 0.00 0.00 0.00 53 1015.8
20260504194826 62 285 2.0 7.0 0.00 0.00 0.00 52 1015.8
20260504194322 62 236 1.0 5.0 0.00 0.00 0.00 52 1015.9
20260504193832 62 275 1.0 4.0 0.00 0.00 0.00 53 1015.9
20260504193323 61 231 1.0 6.0 0.00 0.00 0.00 54 1015.7
20260504192813 61 252 2.0 7.0 0.00 0.00 0.00 53 1015.8
20260504192327 61 276 2.0 7.0 0.00 0.00 0.00 54 1016.0
20260504191837 61 251 1.0 6.0 0.00 0.00 0.00 55 1016.0
20260504191327 61 212 1.0 4.0 0.00 0.00 0.00 56 1016.1
20260504190818 61 139 0.0 7.0 0.00 0.00 0.00 55 1016.1
20260504190328 61 240 3.0 9.0 0.00 0.00 0.00 55 1016.3
20260504185820 61 215 3.0 9.0 0.00 0.00 0.00 56 1016.1
20260504185316 61 196 2.0 5.0 0.00 0.00 0.00 57 1015.9
20260504184848 60 197 1.0 5.0 0.00 0.00 0.00 56 1016.1
20260504184318 60 280 2.0 4.0 0.00 0.00 0.00 56 1016.1
20260504183827 60 264 1.0 5.0 0.00 0.00 0.00 56 1016.1
20260504183317 60 214 3.0 9.0 0.00 0.00 0.00 56 1016.1
20260504182828 60 220 4.0 9.0 0.00 0.00 0.00 56 1016.2
20260504182318 60 207 3.0 10.0 0.00 0.00 0.00 56 1016.2
20260504181830 60 236 3.0 11.0 0.00 0.00 0.00 55 1016.3
20260504181322 60 211 5.0 11.0 0.00 0.00 0.00 54 1016.2
20260504180813 61 273 2.0 8.0 0.00 0.00 0.00 53 1016.1
20260504180329 61 236 3.0 8.0 0.00 0.00 0.00 52 1016.1
20260504175820 61 239 2.0 5.0 0.00 0.00 0.00 52 1015.8
20260504175330 61 216 2.0 5.0 0.00 0.00 0.00 52 1015.9
20260504174821 60 225 1.0 5.0 0.00 0.00 0.00 55 1016.0
20260504174311 60 248 1.0 5.0 0.00 0.00 0.00 55 1015.9
20260504173825 60 270 2.0 6.0 0.00 0.00 0.00 55 1015.7
20260504173337 60 236 1.0 6.0 0.00 0.00 0.00 55 1015.8
20260504172826 60 186 2.0 5.0 0.00 0.00 0.00 55 1015.8
20260504172317 60 236 2.0 5.0 0.00 0.00 0.00 56 1015.7
20260504171812 59 266 1.0 4.0 0.00 0.00 0.00 59 1015.7
20260504171324 58 270 1.0 6.0 0.00 0.00 0.00 60 1015.7
20260504170815 58 265 2.0 6.0 0.00 0.00 0.00 60 1015.6
20260504170326 58 275 2.0 5.0 0.00 0.00 0.00 62 1015.6
20260504160339 56 217 1.0 3.0 0.00 0.00 0.00 69 1015.4
20260504150821 55 254 1.0 4.0 0.00 0.00 0.00 69 1015.3
20260504150311 55 205 0.0 4.0 0.00 0.00 0.00 70 1015.4
20260504141328 53 304 1.0 2.0 0.00 0.00 0.00 73 1015.1
20260504140820 53 308 1.0 4.0 0.00 0.00 0.00 73 1015.1
20260504140311 53 281 1.0 4.0 0.00 0.00 0.00 73 1015.3
20260504130316 53 306 2.0 6.0 0.00 0.00 0.00 76 1014.9
20260504120313 54 230 1.0 5.0 0.00 0.01 0.00 80 1014.4
20260504110331 54 193 0.0 0.0 0.00 0.01 0.00 77 1014.4
20260504100325 55 214 0.0 0.0 0.00 0.01 0.00 77 1014.0
20260504081821 55 146 0.0 3.0 0.00 0.01 0.00 75 1015.5
20260504081312 55 217 1.0 3.0 0.00 0.01 0.00 75 1015.6
20260504080824 55 148 0.0 3.0 0.00 0.01 0.00 75 1015.5
20260504080315 56 224 0.0 4.0 0.00 0.01 0.00 75 1016.0
20260504070315 55 215 1.0 4.0 0.00 0.01 0.00 75 1015.4
20260504050328 56 243 0.0 2.0 0.00 0.01 0.02 72 1015.1
20260504045818 56 161 0.0 4.0 0.00 0.01 0.02 72 1015.1
20260504045329 56 149 2.0 4.0 0.00 0.01 0.02 71 1015.1
20260504044819 57 141 0.0 4.0 0.00 0.01 0.02 71 1015.1